Skip Page Navigation
NASA JPL Caltech
NASA Logo - Jet Propulsion Laboratory + View the NASA Portal
+ Near-Earth Object (NEO) Program
Search JPL
JPL Home Earth Solar System Stars & Galaxies Technology
JPL Solar System Dynamics
BODIES ORBITS EPHEMERIDES TOOLS PHYSICAL DATA DISCOVERY FAQ SITE MAP
JPL Small-Body Database Browser
Search: [ help ]  
4822 Karge (1986 TC1)
Classification: Main-belt Asteroid          SPK-ID: 2004822
Ephemeris | Orbit Diagram | Orbital Elements | Physical Parameters | Discovery Circumstances ]

[ show orbit diagram ]
Orbital Elements at Epoch 2457400.5 (2016-Jan-13.0) TDB
Reference: JPL 19 (heliocentric ecliptic J2000)
 Element Value Uncertainty (1-sigma)   Units 
e .186090323263656 5.1649e-08  
a 2.252101893665797 1.0146e-08 au
q 1.833007524250838 1.1776e-07 au
i 4.050341516674776 5.4803e-06 deg
node 141.4102598792815 7.3996e-05 deg
peri 264.3846968911206 7.5466e-05 deg
M 216.2434997520865 1.613e-05 deg
tp 2457893.452951302453
(2017-May-19.95295130)
5.6892e-05 JED
period 1234.469830323091
3.38
8.3426e-06
2.284e-08
d
yr
n .2916231657972387 1.9708e-09 deg/d
Q 2.671196263080757 1.2035e-08 au
  Orbit Determination Parameters
   # obs. used (total)      1353  
   data-arc span      16210 days (44.38 yr)  
   first obs. used      1971-03-24  
   last obs. used      2015-08-10  
   planetary ephem.      DE431  
   SB-pert. ephem.      SB431-BIG16  
   condition code      0  
   fit RMS      .49724  
   data source      ORB  
   producer      Otto Matic  
   solution date      2015-Sep-02 14:13:56  

Additional Information
 Earth MOID = .846416 au 
 Jupiter MOID = 2.72612 au 
 T_jup = 3.600 
[ show covariance matrix ]

Ephemeris | Orbit Diagram | Orbital Elements | Physical Parameters | Discovery Circumstances ]

Physical Parameter Table
Parameter Symbol Value Units Sigma Reference Notes
absolute magnitude H 13.6 mag n/a MPO267727  

4822 Karge (1986 TC1)          Discovered 1986-Oct-04 by Bowell, E. at Flagstaff
Reference: DISCOVERY.DBLast Updated: 2003-08-29

Alternate Designations
 1986 TC1 = 1979 QM5 = 1979 QO 
Ephemeris | Orbit Diagram | Orbital Elements | Physical Parameters | Discovery Circumstances ]
ABOUT SSD CREDITS/AWARDS PRIVACY/COPYRIGHT GLOSSARY LINKS
FirstGov 2016-Feb-09 22:35 UT
(server date/time)  
NASA Home Page
Site Manager:   Ryan S. Park
Webmaster  Alan B. Chamberlin